User: anonymous   Login
Location: Irma
(52.9170°N, 111.2330°W)
Time: 12:00:35
(UTC-07:00)
Language:

Meteor 1-24 Rocket - Orbit

View from above orbital plane
View from above orbital plane
View from above satellite
View from above satellite

Ground track
Ground track

The orbit data is extracted from the following two-line orbital elements,

1 08800U 76032B   16044.88418039  .00000009  00000-0 -24709-5 0  9997
2 08800  81.2544 333.3291 0095496 129.8048 231.1579 14.10060179 49225
Epoch (UTC): 13 February 2016 21:13:13
Eccentricity: 0.0095496
inclination: 81.2544°
perigee height: 790 km
apogee height: 928 km
right ascension of ascending node: 333.3291°
argument of perigee: 129.8048°
revolutions per day: 14.10060179
mean anomaly at epoch: 231.1579°
orbit number at epoch: 4922

The dashed part of the orbit path shows where the satellite is in the earth's shadow,  

DLR